Regional Weather Roundup
Issued by NWS

Home | Current Version | Previous Version | Text Only | Print | Product List | Glossary On
Versions: 1 2 3 4 5 6 7 8 9 10 11 12 13 14 15 16 17 18 19 20 21 22 23 24 25 26 27 28 29 30 31 32 33 34 35 36 37 38 39 40 41 42 43 44 45 46 47 48 49 50
000
ASUS43 KMPX 062310
RWRMN
WEATHER ROUNDUP FOR MINNESOTA
NATIONAL WEATHER SERVICE TWIN CITIES/CHANHASSEN MN
500 PM CST TUE DEC 06 2016


NOTE: "FAIR" INDICATES FEW OR NO CLOUDS BELOW 12,000 FEET WITH NO
SIGNIFICANT WEATHER AND/OR OBSTRUCTIONS TO VISIBILITY. N/A MEANS
CURRENT SKY AND/OR WEATHER CONDITIONS ARE NOT AVAILABLE.

MNZ060>063-068>070-070000-
   Twin Cities Metro

CITY           SKY/WX    TMP DP  RH WIND       PRES   REMARKS
TWIN CITIES    FLURRIES  23  12  62 W23G31    29.73R WCI   7
ST PAUL        FLURRIES  23  14  68 W15G29    29.75R WCI  10
CRYSTAL        FLURRIES  22  11  62 SW20G33   29.71R WCI   7
BLAINE         FLURRIES  25  16  68 SW16G32   29.70R WCI  12
LAKEVILLE      CLOUDY    21  14  73 W20G32    29.75R WCI   6
EDEN PRAIRIE   CLOUDY    23  13  65 W20G31    29.73R WCI   8
SOUTH ST PAUL  CLOUDY    24  14  65 W14G29    29.74R WCI  12
LAKE ELMO      FLURRIES  25  16  68 SW21      29.73R WCI  10
$$
MNZ001>005-007-008-013>017-022>024-027-028-070000-
   Northwest Minnesota

CITY           SKY/WX    TMP DP  RH WIND       PRES   REMARKS
BEMIDJI        LGT SNOW  23  20  89 W21       29.38R WCI   8
HALLOCK        SNOW      25  21  86 NW30G39   29.46R VSB 1/2 WCI   8
ROSEAU         LGT SNOW  21  18  86 W3        29.42R
WARROAD        LGT SNOW  21  18  86 CALM      29.41S
THIEF RVR FALL LGT SNOW  21  19  93 W10       29.45R FOG     WCI  10
CROOKSTON      LGT SNOW  25  23  93 NW31G38   29.50R VSB 3/4 WCI   8
FOSSTON        LGT SNOW  19  18  93 W13       29.45R WCI   7
DETROIT LAKES  LGT SNOW  19  18  93 W25G37    29.52R WCI   2
MOORHEAD       MIX PCPN  18  14  86 W30G40    29.61R WCI  -2
PARK RAPIDS    SNOW      21  16  81 W28       29.43R VSB 1/2 WCI   3
$$
MNZ006-009>011-018-025>026-070000-
   North Central Minnesota

CITY           SKY/WX    TMP DP  RH WIND       PRES   REMARKS
BAUDETTE       LGT SNOW  21  18  88 NE3       29.39R FOG
FLAG ISLAND    LGT SNOW  23  19  86 CALM      29.40R
INTL FALLS     LGT SNOW  20  17  88 E7        29.39R VSB 3/4 WCI  11
WASKISH        FLURRIES  21  19  93 N5        29.36R WCI  15
BIG FORK       LGT SNOW  21  19  93 S8        29.35S WCI  12
LONGVILLE      LGT SNOW  21  19  93 SW14G23   29.40R WCI   8
GRAND RAPIDS   LGT SNOW  20  17  88 S12G28    29.40S FOG     WCI   8
CRANE LAKE     LGT SNOW  19  16  86 SE3       29.44S
COOK           LGT SNOW  19  16  86 SE8       29.40S WCI   9
$$
MNZ012-019>021-037-070000-
   Northeast Minnesota

CITY           SKY/WX    TMP DP  RH WIND       PRES   REMARKS
DULUTH         LGT SNOW  21  16  81 SW17G24   29.47S WCI   7
ELY            CLOUDY    18  12  79 S7        29.43S WCI   8
HIBBING        LGT SNOW  19  17  92 S9G18     29.40S VSB 1   WCI   8
EVELETH        LGT SNOW  20  17  85 S12       29.42F WCI   8
DULUTH HARBOR  FLURRIES  27  19  74 S16G23    29.54S WCI  14
TWO HARBORS    LGT SNOW  25  19  80 SW13      29.48F WCI  13
SILVER BAY     LGT SNOW  21  19  93 S12G17    29.48F WCI   9
GRAND MARAIS     N/A     30  24  78 SW26      29.53S WCI  16
G MARAIS ARPRT LGT SNOW  19  16  86 S14G23    29.46R WCI   6
$$
MNZ029>031-032-039>041-046>048-054>057-064-070000-
   West Central Minnesota

CITY           SKY/WX    TMP DP  RH WIND       PRES   REMARKS
FERGUS FALLS   LGT SNOW  16  14  93 W28G38    29.68R VSB 3/4 WCI  -4
WHEATON        LGT SNOW  18  14  86 W30G41    29.74R WCI  -2
MORRIS         LGT SNOW  18  12  79 W35G41    29.70R WCI  -3
ALEXANDRIA     LGT SNOW  17  14  88 W28G35    29.63R VSB 1   WCI  -2
ELBOW LAKE     LGT SNOW  16  14  93 NW23G41   29.67R VSB 1   WCI  -2
WADENA         LGT SNOW  18  14  86 W23G37    29.51R WCI   0
GLENWOOD       LGT SNOW  18  16  93 W32G41    29.66R VSB 3/4 WCI  -3
APPLETON       FLURRIES  19  10  68 W25G41    29.77R WCI   2
BENSON         FLURRIES  19  10  68 NW28G38   29.73R WCI   1
ORTONVILLE     CLOUDY    18  10  73 W25G32    29.77R WCI  -1
MADISON        CLEAR     18  10  73 W30G43    29.81R WCI  -2
WILLMAR        FLURRIES  19  14  79 W29G36    29.74R WCI   1
$$
MNZ033>034-036-042>043-049>051-058-059-070000-
   Central Minnesota

CITY           SKY/WX    TMP DP  RH WIND       PRES   REMARKS
ST CLOUD       LGT SNOW  20  14  77 W22G33    29.66R WCI   3
PAYNESVILLE    LGT SNOW  19  14  81 W31G38    29.70R WCI  -1
AITKIN         LGT SNOW  23  14  68 SW15G22   29.46S WCI  10
PINE RIVER     LGT SNOW  19  18  93 SW12G29   29.49R WCI   7
BRAINERD       LGT SNOW  20  15  81 SW28G37   29.51R WCI   2
STAPLES        LGT SNOW  18  14  86 W23       29.52R WCI   0
LONG PRAIRIE   LGT SNOW  19  14  79 SW20G35   29.61R WCI   4
LITTLE FALLS   LGT SNOW  21  14  73 W17G31    29.59R WCI   7
LITCHFIELD     LGT SNOW  19  16  86 W16G23    29.72R WCI   5
BUFFALO        FLURRIES  21  14  74 SW20G26   29.72R WCI   6
MAPLE LAKE     FLURRIES  22  16  78 W18G32    29.70R WCI   7
HUTCHINSON     CLOUDY    20  13  75 W30       29.75R WCI   2
$$
MNZ037-044-045-052-053-070000-
   East Central Minnesota

CITY           SKY/WX    TMP DP  RH WIND       PRES   REMARKS
PRINCETON      FLURRIES  21  16  79 SW21G29   29.65R WCI   6
MORA           FLURRIES  21  14  73 SW18G26   29.62R WCI   6
CAMBRIDGE      FLURRIES  25  16  68 SW13G18   29.64R WCI  13
RUSH CITY      CLOUDY    21  16  79 SW16G25   29.64R WCI   7
MOOSE LAKE     LGT SNOW  21  18  86 SW15G25   29.51R WCI   8
HINCKLEY       LGT SNOW  23  19  86 SW18G26   29.59R WCI   9
CLOQUET        LGT SNOW  21  16  79 S12G21    29.48R WCI   9
MCGREGOR       CLOUDY    23  18  80 SW14G23   29.48S WCI  11
$$
MNZ071>073-080-081-089-090-097-098-070000-
   Southwest Minnesota

CITY           SKY/WX    TMP DP  RH WIND       PRES   REMARKS
MONTEVIDEO     CLOUDY    19  10  68 NW22G33   29.80R WCI   3
GRANITE FALLS  CLOUDY    20  12  72 W32G38    29.83R WCI   0
CANBY          CLEAR     17   9  72 NW31G40   29.83R WCI  -4
MARSHALL       CLEAR     16   9  74 W26G37    29.82R WCI  -3
REDWOOD FALLS  CLOUDY    19   8  62 W26G36    29.81R WCI   1
OLIVIA         CLEAR     21  12  68 W31G37    29.77R WCI   3
PIPESTONE      FLURRIES  16   9  73 W30G38    29.86R WCI  -4
WINDOM         PTCLDY    18  10  73 W25G32    29.82R WCI  -1
WORTHINGTON    PTCLDY    18  11  74 W26G33    29.85R WCI  -1
JACKSON        CLOUDY    19  10  68 W28G37    29.85R WCI   1
TRACY          PTCLDY    17  10  73 W18G30    29.83R WCI   1
SLAYTON        PTCLDY    16  10  77 W30G39    29.84R WCI  -5
$$
MNZ065>067-074>077-082>085-091>093-070000-
   South Central Minnesota

CITY           SKY/WX    TMP DP  RH WIND       PRES   REMARKS
NEW ULM        CLOUDY    19  10  68 W24G36    29.81R WCI   2
ST JAMES       MOCLDY    19  10  68 W26G35    29.85R WCI   1
FAIRMONT       CLEAR     21  12  68 W22G35    29.85R WCI   5
GLENCOE        CLOUDY    22  16  76 W15G29    29.76R WCI   9
FARIBAULT      CLOUDY    23  16  74 SW24G32   29.79R WCI   7
OWATONNA       CLOUDY    23  14  68 W29       29.79R WCI   6
WASECA         CLOUDY    23  14  68 W24G33    29.81R WCI   7
ALBERT LEA     CLOUDY    27  18  69 W17G31    29.81R WCI  14
$$
MNZ078>079-086>088-094>096-070000-
   Southeast Minnesota

CITY           SKY/WX    TMP DP  RH WIND       PRES   REMARKS
ROCHESTER      MIX PCPN  22  15  75 W25G32    29.78R WCI   5
RED WING       CLOUDY    25  14  63 W23G33    29.75S WCI  10
STANTON        CLOUDY    24  15  66 W15G25    29.76R WCI  12
DODGE CENTER     N/A     21  16  79 W23       29.77R WCI   5
WINONA         FLURRIES  28  19  69 SW10G17   29.81R WCI  19
AUSTIN         CLOUDY    23  16  74 W20G30    29.81R WCI   8
PRESTON        CLOUDY    22  15  75 W18G26    29.80R WCI   7
$$
ABBREVIATIONS USED IN REMARKS
   TC - TEMPERATURES IN CELSIUS
  WCI - WIND CHILL INDEX
   HX - HEAT INDEX
  VSB - VISIBILITY
$$




USA.gov is the U.S. government's official web portal to all federal, state and local government web resources and services.